Location: *
(52.2090°N, 4.1550°W)
Time: 00:41:30
(UTC+00:00)

Cosmos 2333 Rocket - Pass Details

Date: 19 July 2019
Orbit: 842 x 860 km, 70.8° (Epoch: 19 August)

Event Time Altitude Azimuth Distance (km) Brightness Sun altitude
Exits shadow 21:26:48 - 151° (SSE) 2,600 4.1 -7.6°
Reaches altitude 10° 21:27:15 10° 148° (SSE) 2,477 4.0 -7.6°
Maximum altitude 21:31:21 21° 101° (E) 1,829 3.5 -8.0°
Drops below altitude 10° 21:35:28 10° 55° (NE) 2,481 4.6 -8.4°
Sets 21:38:28 0° 40° (NE) 3,418 5.5 -8.7°
